Погода Алматы

Погода Алматы : погода сейчас, прогноз погоды и архив. Всё, что Вы хотите узнать о погоде Алматы!

Поиск расширенной информации на нашем сайте:

Полезная информация:

Другие новости

Новости СМИ2

Главная страница сайта

Новости сайта

03.07.2017

Напоминаем, что на нашем специализированном сайте Метеоцентр.Азия вы можете получить высокодетализированные автоматические прогнозы погоды по пунктам России, СНГ и мира в авиационном формате (включающие направление и скорость ветра, видимость, явления погоды, количество и форму облачности, нижнюю и верхнюю границу облачности).

Рекомендуем:

Погода Алматы - сегодня

Время (UTC), дата Ветер
(°,м/с) 
Видим.   Явления Облачность Т
(°С)
Тd
(°С)
f(%) Тe
(°С)
Pmin
(гПа)
dP
(гПа)
Po
(мм)
O2
(г/м3)
Тmin Tmax R s Состояние
почвы
21 18.05.19 тихо ()   н/о    10/0 средняя, верхняя 
[Ac trans|Ci fib]
+16.9 +4.3 43 +17  1010.8  -0.2  687  260           
00 19.05.19 тихо () {04}  20000 м    10/0 верхняя 
[Ci fib]
+16.4 +5.7 49 +16  1011.9  0.8  688  260           
03 19.05.19 360 (С) 20000 м    10/0 средняя, верхняя 
[Ac cast|Ci sp]
+20.9 +7.9 43 +21  1011.3  0.9  688  256           
06 19.05.19 320 (СЗ) 10 км    10/3 600 м кучево-дожд., средняя, верхняя 
[Cb cap|Ac trans|Ci fib]
+23.7 +8 37 +24  1010.2  -0.1  688  254  +15.5         
09 19.05.19 230 (ЮЗ) 10 км  гроза без осадков  10/4 600 м кучево-дожд., верхняя 
[Cb cap|Ci sp]
+25 +8.8 36 +26  1009.2  -0.6  688  252           
12 19.05.19 260 (З) 10 км  слаб. ливневой дождь{гроза}  10/8 600 м кучево-дожд., средняя 
[Cb cap|Ac As]
+21.8 +11 50 +26  1011  0.8  688  255           
15 19.05.19 060 (СВ) н/о  {ливн. осадки}  10/4 600 м кучево-дожд., средняя, верхняя 
[Cb cap|Ac trans|Ci fib]
+18.1 +11 63 +24  1013.7  1.3  689  258    +25.3       
18 19.05.19 тихо ()   н/о  слаб. ливневой дождь  10/10 600 м кучево-дожд. 
[Cb cap]
+16.7 +11.8 73 +22  1017  2.7  691  260    +25.3  0.6     
21 19.05.19 тихо ()   н/о  {ливн. осадки}  8/0 средняя 
[Ac trans]
+15.6 +9.9 69 +18  1014.7  -2.6  689  261           
00 20.05.19 тихо () {04}  20000 м  {ливн. осадки}  3/1 1000 м средняя 
[Cu hum|Ac trans]
+15.3 +7.8 61 +15  1014.3  -0.5  689  261           
03 20.05.19 тихо ()   20000 м    3/1 1000 м средняя 
[Cu hum|Ac trans]
+20.9 +9.8 49 +23  1012.5  0.2  689  256           
06 20.05.19 020 (С) 20000 м    1/1 1000 м 
[Cu med, cong]
+24.2 +11.4 45 +29  1009.8  -1.5  688  252  +14.6    0.0     
09 20.05.19 360 (С) 10 км    3/3 600 м кучево-дожд. 
[Cb cap]
+26.8 +10.2 35 +30  1008.4  -0.5  688  250           
12 20.05.19 тихо ()   20000 м    8/4 600 м кучево-дожд., средняя, верхняя 
[Cb cap|Ac lent|Ci]
+25.2 +11.8 43 +31  1008.6  -0.2  688  251           
15 20.05.19 тихо ()   н/о    8/3 600 м кучево-дожд., средняя, верхняя 
[Cb cap|Ac trans|Ci fib]
+21.6 +11 51 +26  1009.5  -0.3  687  254    +26.9       
18 20.05.19 140 (ЮВ) н/о    8/3 600 м кучево-дожд., средняя, верхняя 
[Cb cap|Ac trans|Ci fib]
+21 +10.2 50 +24  1009  -0.7  687  255    +26.9       
21 20.05.19 тихо ()   н/о    6/0 средняя, верхняя 
[Ac lent|Ci fib]
+18.6 +10.4 59 +22  1006.9  -2.6  685  256           
00 21.05.19 тихо () {04}  20000 м    6/0 средняя, верхняя 
[Ac lent|Ci fib]
+16.1 +8.4 60 +17  1007.3  -0.4  685  259           
03 21.05.19 тихо ()   20000 м    ясно 
+21.8 +13.1 58 +30  1006.1  0.8  685  253           
06 21.05.19 тихо ()   20000 м    ясно 
+29 +13 37 +37  1004  0.1  685  247  +16         
09 21.05.19 070 (В) 20000 м    3/3 1000 м 
[Cu hum]
+29.7 +12.4 35 +36  1003.5  -0.3  685  246           
12 21.05.19 тихо ()   10 км    10/10 600 м кучево-дожд. 
[Cb cap]
+23.8 +12.3 49 +30  1008.9  3.3  687  252           
15 21.05.19 тихо ()   н/о  {гроза, ливн. осадки}  10/10 600 м кучево-дожд. 
[Cb cap]
+17.8 +13.9 78 +27  1012.2  1.2  688  257    +30.1       
18 21.05.19 тихо ()   н/о  {гроза, ливн. осадки}  10/10 600 м кучево-дожд. 
[Cb cap]
+17.1 +13 77 +25  1012.5  0.1  688  258    +30.1     
21 21.05.19 тихо ()   н/о    10/10 600 м кучево-дожд. 
[Cb cap]
+19.6 +9.9 53 +22  1006.7  -4.7  685  256           
Время (UTC), дата Ветер
(°,м/с) 
Видим.   Явления Облачность Т
(°С)
Тd
(°С)
f(%) Тe
(°С)
Pmin
(гПа)
dP
(гПа)
Po
(мм)
O2
(г/м3)
Тmin Tmax R s Состояние
почвы

Для получения пояснительной информации подведите курсор к названию столбца.

ПОГОДА Алматы - архив

Всё, что Вы хотите узнать о погоде Алматы - удобно и подробно!

Выберите нужную дату (начиная с 1 января 2018* года) и нажмите кнопку "Найти".
Будут отображены архивные сводки погоды по пункту Алматы, начиная с указанной даты.


Отображать данные в формате CSV (для использования в таблицах Excel)


Внимание! Наш архив погоды предназначен исключительно для личного некоммерческого использования в познавательных целях. Если Вам необходимы официальные справки о состоянии погоды (для производственных, юридических, коммерческих и т.п. целей), обращайтесь в органы Росгидромета.

*Примечание: данная дата относится к архиву по метеостанциям СССР (Россия, СНГ, Балтия).
Архив по метеостанциям Зарубежной Европы и Азии (кроме Китая) хранится 10 дней, по другим регионам земного шара (Китай, Африка, Америка, Австралия, Океания) - 1 день.

Алматы - район местоположения метеостанции


Название, широта, долгота, высота метеостанции:
Алматы (город) 43.2°ш. 76.9°д. 851 м над ур. моря [Казахстан]

Дополнительная информация

В oтличие oт бoльшинства пoгoдных сайтoв мы публикуем пoдрoбную метеoинфoрмацию в детальнoм прoфессиoнальнoм фoрмате.

Характеристики температуры и влажнoсти вoздуха измеряются на высoте 2 м в тени вдали oт зданий и деревьев.
Скoрoсть ветра измеряется на высoте 10 м (на урoвне рoста челoвека скoрoсть ветра ниже в 1.5-2 раза). Если метеoстанция нахoдится в гoрoде или в лесу, тo скoрoсть ветра занижена на 2-4 м/с пo сравнению с oткрытым местoм. Скoрoсть ветра над акватoриями крупных рек и oзёр, а также на вершинах хoлмoв на 2-5 м/с выше, чем в oбычных услoвиях.
Атмoсфернoе давление в разных тoчках местнoсти мoжет значительнo oтличаться oт давления на метеoстанции, в зависимoсти oт услoвий рельефа (при пoдъёме на 10 м давление пoнижается примернo на 1 мм рт.ст.).